User: anonymous   Login
Location: Unspecified
(0.0000°N, 0.0000°E)
Time: 08:26:19
(UTC+01:00)
Language:

NATO 3D Rocket - Orbit

View from above orbital plane
View from above orbital plane
View from above satellite
View from above satellite

Ground track
Ground track

The orbit data is extracted from the following two-line orbital elements,

1 15392U 84115B   17328.31398464 +.00000151 +00000-0 -17708-4 0  9993
2 15392 021.4987 299.4198 1034290 253.6840 094.7499 12.45552697486200
Epoch (UTC): 24 November 2017 07:32:08
Eccentricity: 0.1034290
inclination: 21.4987°
perigee height: 670 km
apogee height: 2296 km
right ascension of ascending node: 299.4198°
argument of perigee: 253.6840°
revolutions per day: 12.45552697
mean anomaly at epoch: 94.7499°
orbit number at epoch: 48620

The dashed part of the orbit path shows where the satellite is in the earth's shadow,  

DLR